BEIDOU-3 M2 (C20)

Last updated on Sat Jul 05 2025 00:03:20 GMT+0000 (Coordinated Universal Time)

1 43002U 17069B 25185.12440064 -.00000079 00000+0 00000+0 0 9999 2 43002 56.3821 74.6122 0008493 347.2287 12.7906 1.86231001 52111
UTC large
Height (km)
Speed (km/s)
/
Latitude / Longitude
Inclination (degrees)
Orbital Period (minutes)
Azimuth
Elevation
Range (km)
Doppler Factor

Next 0 passes for location: London (51.5072 / 0.1276)

Sorry there are no passes over London.